Probability
0 0 0 0 0 0 0 0 0 0 0 0 0 0 0 0 0 0 0 1 3 8 11 11 11 10 11 14 19 22 21 18 16 12 8 5 2 1 0 0 1 0 0 0 0 0 0 0 0
0 0 0 0 0 0 0 0 0 0 0 0 0 0 0 1 1 0 1 2 3 5 8 10 14 15 16 20 25 28 31 30 28 24 17 10 5 2 1 1 1 1 0 0 0 0 0 0 0
0 0 0 0 0 0 0 0 0 0 0 0 0 1 2 4 5 3 2 3 2 1 4 10 17 21 24 28 33 36 41 44 44 39 31 22 14 7 3 2 2 1 0 0 0 0 0 0 0
0 0 0 0 0 0 0 0 0 0 0 0 1 3 7 12 12 9 6 5 2 1 3 9 18 23 27 33 37 41 47 52 52 48 42 35 25 14 7 4 2 1 0 0 1 1 0 0 0
0 0 0 0 0 0 0 0 0 0 0 1 2 7 14 19 18 15 11 7 4 3 4 8 13 18 25 31 36 42 49 55 56 52 49 44 32 20 11 6 3 1 0 1 2 2 1 0 0
0 0 0 0 0 0 0 0 0 0 1 2 4 11 20 25 23 19 14 9 5 4 6 7 7 11 16 24 33 40 45 51 54 54 52 47 37 27 18 10 5 3 2 2 2 2 1 0 0
0 0 0 0 0 0 0 0 0 0 2 4 6 12 23 31 32 26 19 12 7 6 6 5 3 4 7 14 25 33 39 44 48 50 49 47 42 34 23 14 9 7 4 3 1 1 0 0 0
0 0 0 0 0 0 0 0 0 1 5 9 13 19 30 39 43 39 30 22 16 10 7 5 3 3 4 8 15 23 29 35 40 41 41 40 36 28 18 14 14 11 6 4 1 0 0 0 0
0 0 0 0 0 0 0 0 1 4 10 17 25 34 42 48 51 49 42 34 26 18 12 8 8 9 8 9 12 14 19 25 27 28 28 27 20 14 12 18 22 15 7 5 3 2 2 1 0
0 0 0 0 0 0 0 0 2 6 13 20 30 42 49 49 49 49 46 40 33 26 19 16 16 16 15 17 20 17 18 22 21 22 25 23 19 14 17 28 31 19 10 7 6 5 4 2 1
0 0 0 0 0 0 0 1 5 10 15 17 24 37 45 44 42 42 41 40 37 33 26 24 26 25 24 29 35 33 32 35 35 36 39 38 35 30 31 37 35 23 14 12 12 9 5 3 3
0 0 0 0 0 0 0 3 8 14 16 15 17 26 36 38 35 33 36 38 38 34 29 28 33 35 36 40 46 47 48 54 58 59 58 55 52 45 43 44 39 29 22 20 19 12 6 6 6
0 0 0 0 0 0 0 3 8 13 14 13 13 19 28 32 29 29 33 36 35 33 30 30 36 43 47 50 53 53 56 62 68 72 69 64 60 56 54 53 49 41 34 32 27 18 13 12 11
0 0 0 0 0 0 0 2 6 10 10 11 13 18 24 27 27 28 32 35 35 35 36 36 40 47 53 54 54 54 58 61 66 70 70 65 62 64 65 63 59 54 49 47 40 31 27 24 21
0 0 0 0 0 0 0 2 5 9 10 11 14 18 23 26 27 29 33 35 35 37 40 41 43 48 53 53 52 52 55 58 60 63 65 63 62 66 69 68 67 65 61 59 55 48 43 38 34
0 0 0 0 0 0 0 2 6 9 11 12 13 18 23 25 27 29 30 30 32 36 41 42 42 47 52 53 51 50 51 54 57 59 61 62 61 63 66 67 69 71 71 68 65 60 56 50 45
0 0 0 0 0 0 0 2 5 8 10 11 13 17 20 22 24 23 24 25 29 36 42 43 42 47 53 55 54 52 52 55 57 58 60 62 60 59 61 64 67 70 71 71 68 66 63 56 50
0 0 0 0 0 0 0 1 4 7 9 12 15 16 16 18 20 19 20 22 25 31 38 39 42 48 54 57 57 55 54 55 57 58 59 59 56 54 56 61 61 61 61 63 63 63 60 53 48
0 0 0 0 0 0 0 1 3 5 9 13 14 14 15 17 20 21 22 21 21 24 28 31 35 44 52 57 59 57 53 53 54 55 54 52 48 47 51 56 56 54 53 53 53 54 52 47 43
0 0 0 0 0 0 0 0 1 3 7 9 10 11 12 14 17 21 23 22 20 21 22 24 29 36 46 52 55 54 50 48 50 50 48 44 40 40 44 48 49 49 48 46 43 43 45 44 41
0 0 0 0 0 0 0 0 0 2 3 4 5 7 8 10 13 15 17 20 21 20 19 20 24 31 37 42 45 46 44 42 43 44 42 38 35 34 36 38 40 42 41 38 35 35 38 38 35
0 0 0 0 0 0 0 0 0 1 2 2 3 5 6 7 9 10 12 14 16 16 16 18 22 26 31 34 37 38 38 38 37 37 37 36 32 29 28 29 33 35 33 29 28 28 30 31 28
0 0 0 0 0 0 0 0 0 1 2 2 2 2 3 5 7 8 9 10 10 11 12 15 18 22 25 28 31 34 36 35 33 33 34 33 28 24 22 23 26 27 25 23 22 22 23 25 23
0 0 0 0 0 0 0 0 0 1 2 2 1 0 1 2 4 5 7 8 8 9 9 11 14 17 20 23 27 32 34 32 30 30 30 27 22 20 17 16 17 17 16 15 15 15 17 18 18
0 0 0 0 0 0 0 0 0 1 2 1 0 0 0 0 1 2 4 6 7 7 8 9 10 12 15 18 23 28 30 27 25 26 26 22 17 15 12 10 11 10 9 8 8 9 11 12 13
0 0 0 0 0 0 0 0 0 0 0 0 0 0 0 0 0 0 1 3 4 5 6 7 9 10 11 14 18 21 22 21 20 20 19 16 12 10 8 8 8 8 6 5 4 5 6 7 7
0 0 0 0 0 0 0 0 0 0 0 1 1 0 0 0 0 0 0 1 2 3 4 6 8 8 11 13 14 14 13 13 13 12 11 9 8 7 6 6 6 5 4 4 3 3 4 4 4
0 0 0 0 0 0 0 0 0 0 1 1 1 0 0 0 0 0 0 0 1 2 2 5 7 7 8 10 9 7 6 5 6 7 8 7 6 5 4 4 4 3 3 3 3 3 3 4 4
0 0 0 0 0 0 0 0 1 0 1 1 1 1 1 1 0 0 0 0 1 2 2 4 5 5 4 5 4 2 1 1 2 4 5 5 4 3 2 2 3 3 3 3 3 3 3 3 3
0 0 0 0 0 0 0 0 1 0 0 1 0 1 2 1 0 0 0 0 1 2 3 3 4 4 3 3 1 0 0 0 1 2 2 2 2 1 1 1 3 3 3 3 3 3 3 3 2
Wind_Speed
9 8 7 6 8 8 9 5 3 2 1 3 4 3 3 3 5 6 6 13 15 19 20 19 15 15 15 16 17 16 17 16 16 15 15 15 14 13 13 12 11 11 10 10 10 10 11 11 11
7 7 7 7 9 10 8 5 5 0 4 5 3 4 2 1 5 6 8 13 17 19 19 18 17 15 15 16 17 17 17 17 16 15 15 15 14 13 12 12 11 10 10 10 10 11 11 11 11
7 8 8 7 9 9 5 5 2 2 3 3 2 2 1 4 5 5 10 17 18 18 18 18 17 15 15 16 17 17 17 17 16 16 15 15 14 13 12 12 12 11 10 10 10 10 11 11 11
7 8 6 9 10 4 1 3 2 4 1 2 4 4 4 6 3 8 15 18 18 18 18 19 16 16 15 16 16 17 17 16 16 15 15 14 13 12 12 12 11 11 11 10 10 10 10 10 10
8 7 9 10 9 4 3 2 4 4 1 3 5 5 6 6 7 13 16 17 17 17 17 19 15 15 15 16 16 16 16 15 15 14 14 13 13 12 11 11 11 11 11 10 10 10 10 10 10
7 7 9 10 8 5 4 2 4 3 2 3 5 5 6 6 10 14 16 15 16 16 17 18 16 16 15 15 15 14 14 14 14 14 13 13 12 11 11 11 11 11 10 11 11 10 10 9 8
9 8 8 7 6 7 3 1 2 2 1 1 3 6 8 9 11 14 14 14 15 15 16 16 16 15 15 13 14 14 13 13 13 13 13 13 12 12 12 11 11 11 10 11 11 10 10 9 8
7 6 7 7 7 6 4 1 0 2 2 3 2 5 10 11 13 14 14 13 14 14 14 15 15 15 15 14 14 14 13 12 13 13 13 13 13 12 11 11 10 10 11 11 11 10 10 8 7
8 9 7 7 6 5 3 1 1 0 2 3 3 5 10 16 16 15 14 13 13 12 12 13 14 14 13 14 14 14 13 11 12 12 13 13 12 12 11 11 11 11 10 10 10 10 9 9 8
9 8 5 2 2 1 1 0 1 3 5 7 8 9 13 15 15 15 14 14 14 13 12 12 12 13 12 10 11 10 11 11 11 10 12 11 8 7 8 12 11 11 10 11 10 9 10 10 9
9 7 3 4 3 3 2 1 0 2 4 5 6 10 12 13 12 12 11 11 12 12 11 10 10 10 10 8 9 7 6 8 10 9 10 7 6 6 6 6 9 10 11 10 11 11 10 9 6
7 5 4 4 2 4 3 1 1 1 3 4 4 7 10 10 10 9 9 8 8 9 9 8 9 9 9 8 7 7 6 6 6 7 9 7 5 5 5 5 7 7 7 7 8 7 8 7 7
8 6 5 5 5 5 4 3 1 3 3 3 5 7 8 8 7 6 5 5 5 6 6 7 7 7 6 6 5 6 6 6 6 6 7 7 6 6 6 6 5 7 6 7 7 7 7 7 7
6 5 5 5 5 5 6 5 4 4 3 4 6 7 7 6 6 5 4 3 3 4 4 5 6 6 6 5 5 5 6 6 6 6 8 9 7 6 6 6 6 6 6 6 6 7 7 6 5
5 7 8 6 6 6 7 7 4 3 4 6 7 7 7 6 6 4 3 2 2 3 3 4 5 5 5 6 6 4 5 5 5 5 7 8 8 7 6 6 6 6 6 6 6 6 6 6 5
9 10 9 8 6 6 10 9 7 4 6 7 7 7 7 7 7 6 5 3 2 2 2 2 3 4 5 5 4 4 4 5 4 4 5 7 8 7 7 6 6 6 5 5 6 6 6 5 5
11 10 9 10 5 5 9 7 8 5 6 7 7 7 6 7 7 7 7 5 4 3 3 2 2 3 4 5 4 4 3 4 4 4 4 5 7 7 7 6 6 6 6 6 6 6 5 6 5
8 8 8 8 6 6 6 8 8 5 6 7 6 6 6 7 7 7 7 7 5 4 4 3 2 1 2 3 3 3 4 4 4 4 4 5 5 7 6 6 7 7 6 6 6 6 6 5 5
4 6 7 6 4 4 6 8 7 6 5 6 6 6 6 7 7 7 7 7 7 6 4 3 2 2 1 1 2 3 3 3 3 3 4 5 5 6 6 5 5 6 7 8 8 7 8 7 7
7 8 8 7 5 3 6 6 6 6 5 5 5 5 6 6 7 7 7 7 7 6 5 4 3 2 1 0 1 2 2 2 3 2 2 3 4 4 4 5 4 5 5 8 9 8 6 6 7
8 7 6 7 7 6 7 9 9 8 7 6 5 5 5 5 6 6 7 7 7 6 5 4 4 3 2 2 1 1 1 3 3 3 2 2 2 3 3 4 4 5 5 6 7 8 9 7 7
8 6 5 6 9 7 8 7 10 11 9 8 6 5 5 5 5 6 7 7 7 6 5 4 4 3 3 2 1 2 3 3 3 2 2 2 1 2 3 4 4 5 5 6 7 8 7 9 8
2 4 6 7 8 6 8 9 6 10 10 9 8 6 5 5 5 6 6 7 7 7 6 5 4 4 3 2 1 3 4 2 1 1 2 1 0 1 2 3 2 3 3 4 6 6 7 7 8
4 5 6 8 9 10 6 8 4 6 5 7 9 7 6 5 5 5 5 6 6 7 6 5 5 5 4 3 2 2 2 1 1 2 2 1 1 0 0 1 1 1 2 3 4 5 7 6 7
8 8 7 9 8 6 4 7 0 5 3 5 8 8 7 5 4 4 6 6 7 7 7 6 5 5 5 4 3 2 1 1 1 1 1 1 1 1 1 1 0 0 0 1 2 3 4 5 6
7 9 7 5 5 3 6 6 4 6 5 5 7 8 7 5 4 5 5 6 6 7 6 6 5 5 5 4 3 2 2 1 1 1 1 1 1 1 2 2 2 2 2 2 1 1 1 2 3
6 7 5 8 8 8 4 3 6 6 6 7 8 8 7 6 5 4 5 5 6 6 6 6 5 5 4 4 3 3 3 4 3 3 3 3 3 3 4 4 4 5 5 4 4 3 4 4 4
4 3 4 7 6 7 5 6 3 8 9 9 8 8 7 6 5 4 5 5 6 6 5 5 5 4 4 4 4 4 4 4 4 5 6 5 5 5 5 6 6 7 7 6 5 5 6 6 6
5 5 6 6 7 7 6 1 5 2 5 7 7 7 7 6 5 4 4 5 5 5 5 5 5 5 5 5 5 5 5 6 6 6 7 6 6 6 7 7 8 8 8 7 7 7 7 8 8
5 5 5 6 6 7 8 1 7 3 3 6 7 8 8 6 5 5 4 4 5 6 6 5 5 5 5 5 6 6 7 7 8 8 8 8 8 8 8 8 9 9 9 8 8 8 8 9 9
Wind_Direction
229 219 226 232 231 230 226 171 181 161 119 10 319 284 305 339 357 42 95 147 143 142 142 148 144 142 139 140 142 143 144 145 147 149 149 149 148 147 146 144 142 139 135 131 129 128 127 128 129
206 204 221 229 239 224 195 166 184 84 351 323 276 219 235 75 48 86 126 142 147 143 147 151 144 143 140 140 141 142 144 145 147 148 148 149 149 148 148 147 145 141 137 134 134 133 132 132 135
197 223 232 225 233 239 151 140 142 348 312 271 208 175 161 53 74 107 129 146 147 145 148 141 148 145 142 141 142 143 145 146 147 147 148 149 150 150 149 150 148 144 140 138 137 136 137 139 141
197 204 225 237 224 219 125 121 349 312 209 192 198 151 107 47 50 113 136 150 148 147 146 144 153 147 145 144 144 144 145 146 148 149 150 150 150 150 151 152 151 147 144 143 143 141 142 145 145
225 218 215 222 219 185 212 275 305 295 239 189 207 157 112 66 92 124 143 150 149 147 145 147 154 150 149 149 148 147 148 148 149 149 150 150 150 151 153 155 154 152 152 151 148 148 149 149 151
207 221 222 213 194 184 200 242 274 271 206 177 194 168 101 98 120 134 143 150 148 146 145 146 154 156 155 154 153 151 151 151 151 150 151 151 151 152 154 156 156 157 156 155 153 153 154 153 155
223 224 231 215 184 180 165 207 274 290 171 136 194 157 121 119 126 136 143 148 147 149 147 153 159 161 162 159 158 157 156 155 154 154 154 156 156 157 160 159 160 162 161 160 159 159 159 158 158
244 233 216 205 196 164 135 192 314 315 47 68 217 173 136 133 138 138 140 144 149 153 153 158 164 164 168 168 167 165 163 161 159 160 161 161 162 165 165 168 163 165 164 165 165 165 164 162 162
233 234 205 190 193 153 133 190 94 287 117 96 82 65 110 138 142 141 141 147 152 157 158 164 166 168 175 171 165 172 170 168 168 170 168 173 180 176 177 177 159 171 171 171 170 170 168 169 169
219 227 192 159 208 171 137 312 5 187 143 125 112 106 126 144 149 152 152 156 160 164 168 171 172 171 177 169 166 180 181 174 191 179 178 194 186 187 185 142 166 179 178 177 177 176 179 203 187
217 231 172 197 234 282 258 162 221 219 129 102 120 132 142 148 154 160 157 160 162 165 171 175 176 179 180 174 176 184 188 177 195 186 186 195 186 190 188 167 175 186 188 190 176 189 202 206 204
214 215 222 223 227 255 262 214 150 49 48 63 101 133 147 154 158 157 155 157 158 164 173 177 176 180 189 186 185 188 193 183 193 183 194 188 196 201 196 197 190 189 196 196 193 204 200 207 205
215 197 213 235 239 245 239 208 156 87 57 82 114 128 137 143 144 140 138 140 151 164 174 178 184 180 194 197 202 199 202 194 195 188 196 200 199 206 200 205 202 207 200 193 205 208 195 201 207
196 208 217 220 211 204 201 172 172 97 78 111 118 115 114 114 116 116 127 141 154 157 171 172 187 186 197 203 214 216 213 202 202 197 199 205 209 208 208 208 206 211 209 208 205 203 196 205 202
215 218 199 190 195 181 185 165 136 96 125 129 121 105 91 87 91 96 97 109 140 145 155 171 184 190 198 210 216 222 228 215 216 208 206 210 215 210 213 211 209 213 210 208 211 209 203 197 189
208 212 185 147 173 173 219 163 114 120 139 130 117 104 92 77 68 60 52 43 42 91 123 157 178 182 198 217 226 228 229 226 226 219 217 219 220 213 217 217 215 210 207 205 205 208 203 195 186
201 201 168 143 151 182 223 139 114 133 140 132 122 110 100 85 60 46 36 38 40 59 88 123 166 186 198 206 220 235 237 238 235 227 226 222 223 219 219 221 216 212 209 206 208 198 195 186 173
184 181 173 156 138 187 182 128 123 134 142 133 119 105 91 75 59 46 37 37 44 53 61 80 103 115 199 195 201 224 232 232 231 232 234 230 226 223 223 226 218 212 212 207 205 192 186 177 157
198 198 170 131 129 182 157 140 133 140 149 130 117 100 90 77 64 52 45 39 43 44 45 51 45 45 43 190 213 227 232 234 233 234 236 230 231 227 223 227 215 213 212 207 201 192 181 171 155
204 198 167 142 137 190 157 153 144 149 140 123 122 109 94 82 68 51 42 40 38 37 31 29 27 22 7 340 257 249 259 251 244 240 233 238 233 233 229 229 228 218 216 206 201 191 182 176 173
204 209 180 160 154 180 187 189 174 159 152 144 134 116 102 82 65 52 43 38 31 27 23 20 14 8 357 343 268 239 235 238 228 221 221 241 243 239 247 239 238 228 222 211 202 194 190 185 186
194 193 199 188 209 191 218 237 175 172 177 175 160 141 118 94 74 55 42 35 28 23 21 21 17 17 8 348 307 255 247 247 251 244 223 208 233 253 252 248 239 228 219 215 209 204 200 189 187
167 162 206 215 237 239 215 257 167 172 195 183 169 152 125 97 74 59 45 34 26 19 18 20 18 19 11 351 318 264 253 250 248 222 200 194 171 248 242 244 242 233 223 220 216 208 209 200 193
164 174 190 221 232 238 223 255 222 171 194 166 160 153 135 110 83 61 48 37 28 21 19 18 16 16 7 355 335 295 274 245 232 218 194 189 155 80 309 219 224 242 241 227 220 208 209 205 197
206 217 215 213 218 227 155 249 234 103 114 152 156 149 139 123 95 64 42 30 23 18 15 12 12 14 10 8 7 2 6 280 239 224 203 190 137 73 30 351 121 106 241 244 227 205 204 200 193
211 243 259 264 251 221 180 240 103 107 110 128 140 138 136 124 94 68 45 29 21 17 13 11 10 15 13 13 16 23 34 27 37 41 88 94 76 58 61 58 51 51 58 59 73 127 155 152 161
213 238 295 280 268 268 232 179 140 147 158 157 150 147 142 123 97 71 49 33 22 17 16 13 15 21 19 20 28 46 52 55 61 66 72 70 70 72 73 73 66 59 60 62 67 73 79 88 98
280 252 239 256 266 263 240 231 206 172 184 177 173 163 142 125 108 80 52 35 25 21 23 23 23 31 35 40 41 54 58 66 74 74 76 77 75 76 78 76 76 72 69 68 72 76 80 86 86
200 215 253 265 282 284 281 299 62 118 177 181 173 156 142 133 114 88 63 43 33 31 36 33 35 45 50 51 53 60 62 67 68 71 72 76 75 73 77 78 78 75 71 70 76 81 87 91 90
260 258 251 263 263 265 283 14 83 80 123 150 148 141 133 127 113 93 73 54 43 37 38 41 40 51 55 61 67 67 70 71 71 72 73 75 77 74 74 75 76 75 73 71 75 83 84 88 91